Le nostre stazioni meteo in Italia

Pubblicità
Il mio iltempo24.it
Bournemouth Airport, Gran Bretagna (3862): Temperatura & dewpoint: 18.06.2018 21:00:00 - 24.06.2018 21:00:00 (BST)Bournemouth Airport, Gran Bretagna (3862): Temperatura -20cm & Temperatura -100cm: 18.06.2018 21:00:00 - 24.06.2018 21:00:00 (BST)Bournemouth Airport, Gran Bretagna (3862): velocità del vento & gusts: 18.06.2018 21:00:00 - 24.06.2018 21:00:00 (BST)Bournemouth Airport, Gran Bretagna (3862): direzione del vento: 18.06.2018 21:00:00 - 24.06.2018 21:00:00 (BST)Bournemouth Airport, Gran Bretagna (3862): reduced air pressure: 18.06.2018 21:00:00 - 24.06.2018 21:00:00 (BST)Bournemouth Airport, Gran Bretagna (3862): visibility: 18.06.2018 21:00:00 - 24.06.2018 21:00:00 (BST)Bournemouth Airport, Gran Bretagna (3862): ore di luce: 18.06.2018 21:00:00 - 24.06.2018 21:00:00 (BST)Bournemouth Airport, Gran Bretagna (3862): precipitazioni: 18.06.2018 21:00:00 - 24.06.2018 21:00:00 (BST)
Data & Tempo tt [°C] td [°C] tt -20cm [°C] tt -100cm [°C] ff [km/h] ff [kn] fx [km/h] fx [kn] dd ppp [hPa] vv [km] sd [min] rr [mm]
24.06.2018 21:00:00 - - - - - - - - - - - - -
24.06.2018 20:00:00 19,7 8,2 - - 13 7 - - S 1024,4 10 60 0,0
24.06.2018 19:00:00 20,8 7,7 - - 15 8 - - S 1024,3 10 60 0,0
24.06.2018 18:00:00 20,9 7,4 - - 15 8 - - S 1024,2 10 60 0,0
24.06.2018 17:00:00 21,9 7,8 - - 15 8 - - S 1024,5 10 60 0,0
24.06.2018 16:00:00 22,2 8,8 - - 15 8 - - S 1024,6 10 60 0,0
24.06.2018 15:00:00 23,0 8,7 - - 13 7 - - S 1024,8 10 60 0,0
24.06.2018 14:00:00 22,6 7,6 - - 18 10 - - S 1025,1 10 60 0,0
24.06.2018 13:00:00 22,8 8,2 - - 16 9 - - S 1025,1 10 60 0,0
24.06.2018 12:00:00 22,4 8,3 - - 5 3 - - - 1025,4 10 60 0,0
24.06.2018 11:00:00 22,5 9,1 - - 4 2 - - - 1025,5 10 60 0,0
24.06.2018 10:00:00 20,5 9,6 19,2 16,0 5 3 - - - 1025,6 10 60 0,0
24.06.2018 09:00:00 18,4 9,4 - - 11 6 - - NE 1025,6 10 60 0,0
24.06.2018 08:00:00 16,4 9,7 - - 8 4 - - N 1025,5 10 60 0,0
24.06.2018 07:00:00 12,7 10,7 - - 4 2 - - N 1025,3 10 18 0,0
24.06.2018 06:00:00 9,8 8,3 - - 5 3 - - NNO 1025,0 11 0 0,0
24.06.2018 05:00:00 10,2 8,3 - - 5 3 - - NNO 1024,8 11 0 0,0
24.06.2018 04:00:00 10,8 8,6 - - 5 3 - - NNO 1024,9 15 0 0,0
24.06.2018 03:00:00 12,1 9,0 - - 4 2 - - NNO 1025,1 19 0 0,0
24.06.2018 02:00:00 13,2 9,3 - - 2 1 - - N 1025,3 14 0 0,0
24.06.2018 01:00:00 14,6 9,5 - - 11 6 - - ONO 1025,6 15 - 0,0
24.06.2018 00:00:00 16,1 9,7 - - 11 6 - - ONO 1025,9 10 0 0,0
23.06.2018 23:00:00 17,3 9,5 - - 9 5 - - NO 1026,2 10 0 0,0
23.06.2018 22:00:00 18,7 9,8 - - 11 6 - - ONO 1026,1 10 0 0,0
23.06.2018 21:00:00 19,0 10,7 - - 8 4 - - O 1025,7 10 0 0,0
23.06.2018 20:00:00 20,4 10,7 - - 8 4 - - SO 1025,6 10 0 0,0
23.06.2018 19:00:00 21,3 9,9 - - 13 7 - - SO 1025,7 10 12 0,0
23.06.2018 18:00:00 22,1 10,5 - - 15 8 - - S 1026,1 10 18 0,0
23.06.2018 17:00:00 22,7 10,4 - - 16 9 - - S 1026,6 10 30 0,0
23.06.2018 16:00:00 22,8 9,8 - - 21 11 - - S 1027,0 10 60 0,0
23.06.2018 15:00:00 23,1 9,4 - - 18 10 - - S 1027,7 10 60 0,0
23.06.2018 14:00:00 22,0 8,4 - - 16 9 - - SSE 1028,2 10 60 0,0
23.06.2018 13:00:00 22,3 8,9 - - 13 7 - - S 1028,7 10 60 0,0
23.06.2018 12:00:00 21,8 6,8 - - 9 5 - - - 1029,3 10 60 0,0
23.06.2018 11:00:00 21,6 7,1 - - 8 4 - - O 1029,4 10 60 0,0
23.06.2018 10:00:00 20,0 7,8 18,7 15,9 4 2 - - - 1029,9 10 60 0,0
23.06.2018 09:00:00 17,8 10,6 - - 4 2 - - - 1030,0 10 60 0,0
23.06.2018 08:00:00 14,6 9,4 - - 5 3 - - - 1030,2 10 60 0,0
23.06.2018 07:00:00 11,6 9,1 - - 4 2 - - - 1029,8 10 60 0,0
23.06.2018 06:00:00 8,6 7,2 - - 4 2 - - N 1029,9 10 18 0,0
23.06.2018 05:00:00 7,5 6,5 - - 5 3 - - NO 1030,1 12 0 0,0
23.06.2018 04:00:00 8,7 7,6 - - 4 2 - - NNE 1029,9 14 0 0,0
23.06.2018 03:00:00 8,4 6,7 - - 2 1 - - NO 1029,8 16 0 0,0
23.06.2018 02:00:00 10,0 8,2 - - 4 2 - - NNO 1029,8 13 0 0,0
23.06.2018 01:00:00 10,7 8,5 - - 4 2 - - NNO 1029,9 14 - 0,0
23.06.2018 00:00:00 11,9 8,0 - - 4 2 - - NNO 1030,0 14 0 0,0
22.06.2018 23:00:00 13,3 8,2 - - 4 2 - - ONO 1030,1 10 0 0,0
22.06.2018 22:00:00 14,4 8,1 - - 5 3 - - ONO 1030,1 10 0 0,0
22.06.2018 21:00:00 16,4 8,5 - - 8 4 - - OSO 1029,7 10 54 0,0
22.06.2018 20:00:00 18,5 8,5 - - 13 7 - - SO 1029,6 10 60 0,0
22.06.2018 19:00:00 19,5 9,4 - - 13 7 - - S 1029,6 10 60 0,0
22.06.2018 18:00:00 19,7 8,8 - - 15 8 - - S 1029,7 10 60 0,0
22.06.2018 17:00:00 20,2 9,0 - - 15 8 - - S 1029,9 10 60 0,0
22.06.2018 16:00:00 19,5 8,5 - - 15 8 - - S 1030,0 10 60 0,0
22.06.2018 15:00:00 20,1 8,4 - - 16 9 - - S 1030,1 10 48 0,0
22.06.2018 14:00:00 20,4 8,2 - - 9 5 - - S 1030,4 10 54 0,0
22.06.2018 13:00:00 20,8 8,4 - - 13 7 - - ENE 1030,7 10 48 0,0
22.06.2018 12:00:00 20,0 8,8 - - 8 4 - - - 1031,0 10 54 0,0
22.06.2018 11:00:00 17,9 8,7 - - 8 4 - - ESE 1031,0 10 60 0,0
22.06.2018 10:00:00 16,2 7,6 18,7 15,9 13 7 - - N 1031,1 10 60 0,0
22.06.2018 09:00:00 14,0 7,4 - - 16 9 - - N 1031,4 10 60 0,0
22.06.2018 08:00:00 12,4 7,1 - - 16 9 - - N 1031,4 18 60 0,0
22.06.2018 07:00:00 9,9 6,2 - - 5 3 - - - 1031,4 10 60 0,0
22.06.2018 06:00:00 6,5 3,9 - - 4 2 - - ONO 1031,2 19 30 0,0
22.06.2018 05:00:00 6,2 3,3 - - 2 1 - - ONO 1031,2 21 0 0,0
22.06.2018 04:00:00 6,6 3,2 - - 5 3 - - NO 1031,0 21 0 0,0
22.06.2018 03:00:00 7,2 3,3 - - 8 4 - - NNO 1030,6 21 0 0,0
22.06.2018 02:00:00 8,2 3,9 - - 5 3 - - NNO 1030,6 23 0 0,0
22.06.2018 01:00:00 10,3 4,5 - - 11 6 - - N 1030,4 20 - 0,0
22.06.2018 00:00:00 11,0 4,4 - - 13 7 - - N 1030,2 21 0 0,0
21.06.2018 23:00:00 12,5 4,7 - - 13 7 - - N 1030,0 10 0 0,0
21.06.2018 22:00:00 13,5 4,1 - - 13 7 - - N 1029,5 10 18 0,0
21.06.2018 21:00:00 16,3 3,9 - - 18 10 - - N 1028,8 10 60 0,0
21.06.2018 20:00:00 18,1 3,8 - - 24 13 - - N 1028,4 10 60 0,0
21.06.2018 19:00:00 19,1 4,1 - - 21 11 - - NNE 1028,0 10 60 0,0
21.06.2018 18:00:00 19,7 3,6 - - 21 11 - - N 1027,7 10 60 0,0
21.06.2018 17:00:00 20,2 3,1 - - 22 12 - - N 1027,3 10 60 0,0
21.06.2018 16:00:00 20,2 3,8 - - 21 11 - - NNE 1027,3 10 60 0,0
21.06.2018 15:00:00 20,5 3,6 - - 28 15 50 27 N 1027,1 10 60 0,0
21.06.2018 14:00:00 19,3 3,9 - - 24 13 - - NNE 1026,6 10 60 0,0
21.06.2018 13:00:00 17,8 5,0 - - 22 12 - - N 1026,5 10 60 0,0
21.06.2018 12:00:00 17,2 5,2 - - 21 11 - - N 1026,6 29 60 0,0
21.06.2018 11:00:00 17,3 6,7 - - 18 10 - - N 1026,6 10 54 0,0
21.06.2018 10:00:00 14,3 5,0 18,9 15,7 22 12 - - NNO 1026,4 24 54 0,0
21.06.2018 09:00:00 13,8 5,5 - - 21 11 - - N 1026,0 10 54 0,0
21.06.2018 08:00:00 12,9 6,7 - - 16 9 - - NNO 1025,4 10 54 0,0
21.06.2018 07:00:00 11,1 7,8 - - 9 5 - - NO 1025,0 10 0 0,0
21.06.2018 06:00:00 9,9 7,6 - - 9 5 - - NO 1024,4 10 12 0,0
21.06.2018 05:00:00 8,9 6,9 - - 11 6 - - NNO 1023,9 19 0 0,0
21.06.2018 04:00:00 9,8 7,1 - - 11 6 - - NNO 1023,4 21 0 0,0
21.06.2018 03:00:00 12,5 7,2 - - 18 10 - - N 1022,8 21 0 0,0
21.06.2018 02:00:00 13,0 8,4 - - 16 9 - - N 1022,2 22 0 0,0
21.06.2018 01:00:00 14,9 10,4 - - 24 13 - - N 1021,7 21 - 0,0
21.06.2018 00:00:00 14,5 12,7 - - 15 8 - - NO 1021,5 10 0 0,0
20.06.2018 23:00:00 15,3 12,5 - - 16 9 - - NO 1021,0 10 0 0,0
20.06.2018 22:00:00 16,3 12,9 - - 13 7 - - NO 1020,7 10 0 0,0
20.06.2018 21:00:00 18,6 14,5 - - 18 10 - - NNO 1020,2 10 0 0,0
20.06.2018 20:00:00 19,6 15,9 - - 15 8 - - O 1019,7 10 18 0,0
20.06.2018 19:00:00 19,8 15,3 - - 15 8 - - O 1020,0 10 6 0,0
20.06.2018 18:00:00 21,2 15,3 - - 18 10 - - OSO 1019,8 10 54 0,0
20.06.2018 17:00:00 21,9 15,3 - - 21 11 - - OSO 1020,2 10 54 0,0
20.06.2018 16:00:00 21,1 15,2 - - 21 11 - - OSO 1020,7 10 60 0,0
20.06.2018 15:00:00 21,4 15,4 - - 15 8 - - SO 1020,7 10 48 0,0
20.06.2018 14:00:00 20,5 15,4 - - 16 9 - - SO 1021,2 10 6 0,0
20.06.2018 13:00:00 18,6 14,6 - - 15 8 - - OSO 1021,4 10 0 0,0
20.06.2018 12:00:00 17,8 14,9 - - 16 9 - - SO 1021,8 10 0 0,0
20.06.2018 11:00:00 17,1 14,3 - - 15 8 - - SO 1021,9 10 12 0,0
20.06.2018 10:00:00 17,0 14,3 18,7 15,7 16 9 - - OSO 1022,0 10 0 0,0
20.06.2018 09:00:00 16,1 14,2 - - 16 9 - - SO 1022,0 10 0 0,0
20.06.2018 08:00:00 15,3 14,0 - - 16 9 - - OSO 1022,3 9 0 0,0
20.06.2018 07:00:00 14,8 14,2 - - 15 8 - - O 1022,2 6 0 0,0
20.06.2018 06:00:00 14,6 13,9 - - 15 8 - - OSO 1021,8 7 0 0,0
20.06.2018 05:00:00 14,8 14,3 - - 13 7 - - SO 1021,7 6 0 0,0
20.06.2018 04:00:00 15,4 14,5 - - 15 8 - - OSO 1021,9 17 0 0,0
20.06.2018 03:00:00 15,1 14,6 - - 11 6 - - OSO 1022,1 9 0 0,0
20.06.2018 02:00:00 15,5 14,7 - - 9 5 - - SO 1022,4 13 0 0,0
20.06.2018 01:00:00 15,5 14,9 - - 8 4 - - OSO 1022,9 10 - 0,0
20.06.2018 00:00:00 15,1 14,5 - - 8 4 - - OSO 1023,1 8 0 0,0
19.06.2018 23:00:00 14,9 13,7 - - 4 2 - - O 1023,3 8 0 0,0
19.06.2018 22:00:00 15,9 14,3 - - 11 6 - - SO 1023,5 10 0 0,0
19.06.2018 21:00:00 17,3 14,2 - - 13 7 - - SO 1023,3 10 54 0,0
19.06.2018 20:00:00 19,0 14,6 - - 21 11 - - OSO 1023,3 10 60 0,0
19.06.2018 19:00:00 20,1 15,0 - - 18 10 - - OSO 1023,3 10 60 0,0
19.06.2018 18:00:00 21,4 15,9 - - 21 11 - - OSO 1023,4 10 60 0,0
19.06.2018 17:00:00 21,8 15,3 - - 21 11 - - SO 1023,5 18 60 0,0
19.06.2018 16:00:00 23,0 15,8 - - 22 12 - - OSO 1023,7 10 60 0,0
19.06.2018 15:00:00 22,8 16,0 - - 22 12 - - SO 1023,9 10 30 0,0
19.06.2018 14:00:00 21,4 15,7 - - 18 10 - - SO 1023,9 10 0 0,0
19.06.2018 13:00:00 21,8 16,9 - - 15 8 - - OSO 1024,1 10 0 0,0
19.06.2018 12:00:00 20,3 15,6 - - 16 9 - - OSO 1024,2 10 0 0,0
19.06.2018 11:00:00 19,9 15,5 - - 15 8 - - OSO 1024,1 10 6 0,0
19.06.2018 10:00:00 18,5 15,2 18,4 15,7 11 6 - - O 1024,4 10 0 0,0
19.06.2018 09:00:00 19,1 15,9 - - 13 7 - - OSO 1024,2 10 0 0,0
19.06.2018 08:00:00 17,4 15,0 - - 11 6 - - OSO 1023,9 10 0 0,0
19.06.2018 07:00:00 16,9 15,1 - - 11 6 - - OSO 1023,6 10 0 0,0
19.06.2018 06:00:00 16,3 15,0 - - 11 6 - - OSO 1023,4 10 0 0,0
19.06.2018 05:00:00 16,3 14,9 - - 11 6 - - OSO 1022,9 10 0 0,0
19.06.2018 04:00:00 16,2 15,0 - - 13 7 - - O 1022,6 15 0 0,0
19.06.2018 03:00:00 15,9 14,6 - - 11 6 - - O 1022,5 19 0 0,0
19.06.2018 02:00:00 16,2 14,9 - - 16 9 - - O 1022,4 11 0 0,0
19.06.2018 01:00:00 16,2 15,0 - - 13 7 - - OSO 1022,4 10 - 0,0
19.06.2018 00:00:00 16,1 15,2 - - 18 10 - - OSO 1022,5 6 0 0,0
18.06.2018 23:00:00 16,6 15,2 - - 18 10 - - OSO 1022,7 8 0 0,0
18.06.2018 22:00:00 16,4 14,9 - - 18 10 - - OSO 1022,5 7 0 0,0
18.06.2018 21:00:00 16,8 14,9 - - 21 11 - - OSO 1022,0 8 0 0,0

tt = Temperatura
td = dewpoint
tt -20cm = Temperatura -20cm
tt -100cm = Temperatura -100cm
ff = velocità del vento
fx = gusts
dd = direzione del vento
ppp = reduced air pressure
vv = visibility
sd = ore di luce
rr = precipitazioni

Stazioni seguenti

WeatherPro
AMSI
MeteoEarth